Weather History for Novato, CA

Change the Weather History Date:

Tuesday, September 3, 2013

  Actual Average (KAPC) Record (KAPC)
Temperature  
Mean Temperature 66 °F 66 °F  
Max Temperature 78 °F 81 °F 96 °F (2008)
Min Temperature 53 °F 51 °F 44 °F (2000)
Degree Days  
Heating Degree Days 0    
Month to date heating degree days  
Since 1 July heating degree days  
Cooling Degree Days 0    
Month to date cooling degree days  
Year to date cooling degree days  
Growing Degree Days 16 (Base 50)    
Moisture  
Dew Point 54 °F    
Average Humidity 69    
Maximum Humidity 100    
Minimum Humidity 32    
Precipitation  
Precipitation 0.00 in - 0.20 in (1940)
Month to date precipitation  
Year to date precipitation  
Since 1 July precipitation  
Sea Level Pressure  
Sea Level Pressure 29.96 in    
Wind  
Wind Speed 5 mph (NW)    
Max Wind Speed 17 mph    
Max Gust Speed 25 mph    
Visibility 10 miles    
Events      
T = Trace of Precipitation, MM = Missing Value Source: NWS Daily Summary

Daily Weather History Graph

Daily Weather History Graph

Search for Another Location

Airport:

Trip Planner

Search our weather history database for the weather conditions in past years. The results will help you decide how hot, cold, wet, or windy it might be!

Date:

Astronomy

Sep. 03, 2013 Rise Set
Actual Time 6:41 AM PDT 7:36 PM PDT
Civil Twilight 6:15 AM PDT 8:03 PM PDT
Nautical Twilight 5:43 AM PDT 8:34 PM PDT
Astronomical Twilight 5:10 AM PDT 9:07 PM PDT
Moon 5:01 AM PDT (9/3) 6:26 PM PDT (9/3)
Length of Visible Light 13h 48m
Length of Day
12h 54m
Waning Crescent, 3% of the Moon is Illuminated
Sep 3
Waning Crescent
Sep 5
New
Sep 12
First Quarter
Sep 19
Full
Sep 26
Last Quarter

Hourly Weather History & Observations

Time (PDT) Temp. Dew Point Humidity Pressure Visibility Wind Dir Wind Speed Gust Speed Precip Events Conditions
12:15 AM 62.6 °F 57.2 °F 82% 29.94 in 10.0 mi Calm Calm - N/A   Clear
12:35 AM 59.0 °F 59.0 °F 100% 29.94 in 10.0 mi Calm Calm - N/A   Clear
12:55 AM 59.0 °F 57.2 °F 94% 29.94 in 10.0 mi Calm Calm - N/A   Clear
1:15 AM 60.8 °F 57.2 °F 88% 29.94 in 10.0 mi North 3.5 mph - N/A   Clear
1:35 AM 59.0 °F 55.4 °F 88% 29.94 in 10.0 mi WNW 3.5 mph - N/A   Clear
1:55 AM 60.8 °F 55.4 °F 82% 29.94 in 10.0 mi WNW 3.5 mph - N/A   Clear
2:15 AM 60.8 °F 55.4 °F 82% 29.94 in 10.0 mi Calm Calm - N/A   Clear
2:35 AM 59.0 °F 55.4 °F 88% 29.94 in 10.0 mi WSW 3.5 mph - N/A   Clear
2:55 AM 60.8 °F 55.4 °F 82% 29.94 in 10.0 mi SE 3.5 mph - N/A   Clear
3:15 AM 60.8 °F 53.6 °F 77% 29.94 in 10.0 mi ESE 5.8 mph - N/A   Clear
3:35 AM 59.0 °F 55.4 °F 88% 29.94 in 10.0 mi East 6.9 mph - N/A   Clear
3:55 AM 60.8 °F 53.6 °F 77% 29.94 in 10.0 mi Calm Calm - N/A   Clear
4:15 AM 57.2 °F 55.4 °F 94% 29.94 in 10.0 mi ENE 4.6 mph - N/A   Clear
4:35 AM 57.2 °F 55.4 °F 94% 29.94 in 10.0 mi ENE 3.5 mph - N/A   Clear
4:55 AM 57.2 °F 55.4 °F 94% 29.95 in 10.0 mi Calm Calm - N/A   Clear
5:15 AM 57.2 °F 55.4 °F 94% 29.95 in 10.0 mi NE 3.5 mph - N/A   Clear
5:35 AM 55.4 °F 55.4 °F 100% 29.95 in 10.0 mi Calm Calm - N/A   Clear
5:55 AM 55.4 °F 55.4 °F 100% 29.95 in 10.0 mi Calm Calm - N/A   Clear
6:15 AM 55.4 °F 55.4 °F 100% 29.96 in 10.0 mi Calm Calm - N/A   Clear
6:35 AM 53.6 °F 53.6 °F 100% 29.96 in 10.0 mi Calm Calm - N/A   Clear
6:55 AM 53.6 °F 53.6 °F 100% 29.97 in 9.0 mi Calm Calm - N/A   Clear
7:15 AM 55.4 °F 55.4 °F 100% 29.97 in 10.0 mi Calm Calm - N/A   Clear
7:35 AM 55.4 °F 55.4 °F 100% 29.97 in 10.0 mi Calm Calm - N/A   Clear
7:55 AM 57.2 °F 57.2 °F 100% 29.98 in 10.0 mi ESE 3.5 mph - N/A   Clear
8:15 AM 60.8 °F 57.2 °F 88% 29.98 in 10.0 mi East 3.5 mph - N/A   Clear
8:35 AM 62.6 °F 55.4 °F 77% 29.98 in 10.0 mi NNE 4.6 mph - N/A   Clear
8:55 AM 64.4 °F 55.4 °F 73% 29.99 in 10.0 mi Calm Calm - N/A   Clear
9:15 AM 66.2 °F 55.4 °F 68% 29.99 in - NNE 3.5 mph - N/A   Clear
9:35 AM 68.0 °F 55.4 °F 64% 29.99 in - ENE 3.5 mph - N/A   Clear
9:55 AM 69.8 °F 53.6 °F 56% 29.99 in - ENE 4.6 mph - N/A   Clear
10:15 AM 73.4 °F 46.4 °F 38% 29.99 in - NW 13.8 mph 17.3 mph N/A   Clear
10:35 AM 75.2 °F 46.4 °F 36% 30.00 in - NNW 12.7 mph 16.1 mph N/A   Clear
10:55 AM 75.2 °F 46.4 °F 36% 29.99 in - NNW 10.4 mph - N/A   Clear
11:15 AM 75.2 °F 46.4 °F 36% 29.99 in - NW 11.5 mph 17.3 mph N/A   Clear
11:35 AM 77.0 °F 46.4 °F 34% 30.00 in - NNW 9.2 mph 16.1 mph N/A   Clear
11:55 AM 77.0 °F 46.4 °F 34% 29.99 in - WNW 12.7 mph - N/A   Clear
12:15 PM 77.0 °F 46.4 °F 34% 29.99 in - NW 13.8 mph - N/A   Clear
12:35 PM 78.8 °F 46.4 °F 32% 29.98 in - NW 12.7 mph 19.6 mph N/A   Clear
12:55 PM 77.0 °F 48.2 °F 36% 29.98 in - WNW 13.8 mph 18.4 mph N/A   Clear
1:15 PM 77.0 °F 50.0 °F 39% 29.98 in - WNW 15.0 mph - N/A   Clear
1:35 PM 77.0 °F 50.0 °F 39% 29.98 in - West 9.2 mph 19.6 mph N/A   Clear
1:55 PM 77.0 °F 51.8 °F 41% 29.97 in - West 12.7 mph 19.6 mph N/A   Clear
2:15 PM 78.8 °F 53.6 °F 42% 29.97 in - West 12.7 mph 17.3 mph N/A   Clear
2:35 PM 78.8 °F 53.6 °F 42% 29.97 in - West 12.7 mph - N/A   Clear
2:55 PM 77.0 °F 53.6 °F 44% 29.96 in - West 13.8 mph - N/A   Clear
3:15 PM 77.0 °F 53.6 °F 44% 29.96 in - West 17.3 mph 23.0 mph N/A   Clear
3:35 PM 77.0 °F 55.4 °F 47% 29.95 in - West 12.7 mph 21.9 mph N/A   Clear
3:55 PM 77.0 °F 53.6 °F 44% 29.95 in - West 16.1 mph 21.9 mph N/A   Clear
4:15 PM 75.2 °F 53.6 °F 47% 29.95 in - West 11.5 mph 25.3 mph N/A   Clear
4:35 PM 75.2 °F 53.6 °F 47% 29.94 in - West 12.7 mph 19.6 mph N/A   Clear
4:55 PM 75.2 °F 53.6 °F 47% 29.94 in - WNW 6.9 mph - N/A   Clear
5:15 PM 73.4 °F 55.4 °F 53% 29.94 in - West 6.9 mph - N/A   Clear
5:35 PM 73.4 °F 55.4 °F 53% 29.93 in - West 10.4 mph - N/A   Clear
5:55 PM 73.4 °F 55.4 °F 53% 29.94 in - West 4.6 mph 19.6 mph N/A   Clear
6:15 PM 71.6 °F 57.2 °F 60% 29.94 in - SSW 3.5 mph 16.1 mph N/A   Clear
6:35 PM 69.8 °F 57.2 °F 64% 29.94 in - ENE 3.5 mph - N/A   Clear
6:55 PM 68.0 °F 57.2 °F 68% 29.93 in - ESE 4.6 mph - N/A   Clear
7:15 PM 68.0 °F 57.2 °F 68% 29.93 in - SSE 4.6 mph - N/A   Clear
7:35 PM 66.2 °F 57.2 °F 73% 29.93 in - South 6.9 mph - N/A   Clear
7:55 PM 66.2 °F 57.2 °F 73% 29.93 in - SSW 11.5 mph - N/A   Clear
8:15 PM 66.2 °F 57.2 °F 73% 29.94 in 10.0 mi SSW 9.2 mph 16.1 mph N/A   Clear
8:35 PM 66.2 °F 57.2 °F 73% 29.94 in 10.0 mi SSW 12.7 mph - N/A   Clear
8:55 PM 64.4 °F 57.2 °F 77% 29.94 in 10.0 mi SSW 9.2 mph - N/A   Clear
9:15 PM 64.4 °F 57.2 °F 77% 29.94 in 10.0 mi SSW 13.8 mph 18.4 mph N/A   Clear
9:35 PM 64.4 °F 57.2 °F 77% 29.95 in 10.0 mi Calm Calm - N/A   Clear
9:55 PM 64.4 °F 57.2 °F 77% 29.95 in 10.0 mi East 3.5 mph - N/A   Clear
10:15 PM 64.4 °F 57.2 °F 77% 29.95 in 10.0 mi East 6.9 mph - N/A   Clear
10:35 PM 62.6 °F 57.2 °F 82% 29.96 in 10.0 mi East 8.1 mph - N/A   Clear
10:55 PM 62.6 °F 57.2 °F 82% 29.96 in 10.0 mi East 5.8 mph - N/A   Clear
11:15 PM 62.6 °F 57.2 °F 82% 29.96 in 10.0 mi East 5.8 mph - N/A   Clear
11:35 PM 60.8 °F 57.2 °F 88% 29.96 in 10.0 mi East 4.6 mph - N/A   Clear
11:55 PM 59.0 °F 57.2 °F 94% 29.97 in 10.0 mi ENE 5.8 mph - N/A   Clear